| time (UTC) | temp F | wind direction | speed MPH | gust MPH | rain 1hr in | rain 24hr in | rain mn in | humidity % | barometer mb |
| 20260503173417 | 56 | 102 | 2.0 | 3.0 | 0.00 | 0.00 | 0.00 | 36 | 1017.9 |
| 20260503172914 | 56 | 284 | 1.0 | 2.0 | 0.00 | 0.00 | 0.00 | 38 | 1018.3 |
| 20260503172411 | 56 | 134 | 1.0 | 5.0 | 0.00 | 0.00 | 0.00 | 38 | 1018.3 |
| 20260503171907 | 57 | 241 | 1.0 | 2.0 | 0.00 | 0.00 | 0.00 | 36 | 1018.3 |
| 20260503171404 | 55 | 345 | 1.0 | 3.0 | 0.00 | 0.00 | 0.00 | 40 | 1018.4 |
| 20260503170901 | 55 | 183 | 6.0 | 8.0 | 0.00 | 0.00 | 0.00 | 38 | 1018.5 |
| 20260503170358 | 55 | 8 | 2.0 | 3.0 | 0.00 | 0.00 | 0.00 | 39 | 1018.3 |
| 20260503150750 | 51 | 54 | 2.0 | 5.0 | 0.00 | 0.00 | 0.00 | 44 | 1020.0 |
| 20260503150246 | 50 | 8 | 3.0 | 5.0 | 0.00 | 0.00 | 0.00 | 43 | 1020.0 |
| 20260503140210 | 47 | 5 | 6.0 | 7.0 | 0.00 | 0.00 | 0.00 | 45 | 1020.5 |
| 20260503131140 | 47 | 299 | 6.0 | 8.0 | 0.00 | 0.00 | 0.00 | 50 | 1019.9 |
| 20260503130637 | 46 | 298 | 3.0 | 5.0 | 0.00 | 0.00 | 0.00 | 52 | 1019.9 |
| 20260503130135 | 47 | 272 | 1.0 | 3.0 | 0.00 | 0.00 | 0.00 | 50 | 1020.0 |
| 20260503110527 | 37 | 296 | 1.0 | 1.0 | 0.00 | 0.00 | 0.00 | 82 | 1018.8 |
| 20260503090414 | 37 | 283 | 1.0 | 1.0 | 0.00 | 0.00 | 0.00 | 80 | 1017.0 |
| 20260503081341 | 34 | 283 | 0.0 | 0.0 | 0.00 | 0.00 | 0.00 | 92 | 1016.8 |
| 20260503080837 | 34 | 290 | 0.0 | 1.0 | 0.00 | 0.00 | 0.00 | 92 | 1016.9 |
| 20260503080335 | 35 | 303 | 0.0 | 1.0 | 0.00 | 0.00 | 0.00 | 92 | 1016.3 |
| 20260503072811 | 35 | 285 | 0.0 | 1.0 | 0.00 | 0.00 | 0.00 | 91 | 1016.2 |
| 20260503072308 | 35 | 270 | 0.0 | 1.0 | 0.00 | 0.00 | 0.00 | 90 | 1016.5 |
| 20260503071804 | 35 | 268 | 0.0 | 0.0 | 0.00 | 0.00 | 0.00 | 90 | 1016.1 |
| 20260503071302 | 35 | 267 | 0.0 | 0.0 | 0.00 | 0.00 | 0.00 | 90 | 1016.2 |
| 20260503070757 | 36 | 281 | 0.0 | 0.0 | 0.00 | 0.00 | 0.00 | 90 | 1016.0 |
| 20260503070256 | 36 | 320 | 1.0 | 2.0 | 0.00 | 0.00 | 0.00 | 90 | 1016.1 |
| 20260503060227 | 36 | 287 | 0.0 | 1.0 | 0.00 | 0.00 | 0.00 | 87 | 1016.2 |
| 20260503054713 | 37 | 289 | 1.0 | 2.0 | 0.00 | 0.00 | 0.00 | 88 | 1016.0 |
| 20260503054211 | 37 | 292 | 0.0 | 0.0 | 0.00 | 0.00 | 0.00 | 88 | 1015.8 |
| 20260503053709 | 37 | 326 | 1.0 | 1.0 | 0.00 | 0.00 | 0.00 | 88 | 1016.0 |
| 20260503053207 | 37 | 312 | 1.0 | 1.0 | 0.00 | 0.00 | 0.00 | 86 | 1016.1 |
| 20260503052703 | 37 | 293 | 1.0 | 1.0 | 0.00 | 0.00 | 0.00 | 86 | 1015.9 |
| 20260503052159 | 37 | 279 | 0.0 | 1.0 | 0.00 | 0.00 | 0.00 | 85 | 1016.0 |
| 20260503051655 | 37 | 303 | 1.0 | 1.0 | 0.00 | 0.00 | 0.00 | 85 | 1015.8 |
| 20260503051153 | 38 | 299 | 2.0 | 3.0 | 0.00 | 0.00 | 0.00 | 85 | 1016.0 |
| 20260503050649 | 38 | 299 | 3.0 | 3.0 | 0.00 | 0.00 | 0.00 | 84 | 1016.0 |
| 20260503050146 | 38 | 298 | 3.0 | 3.0 | 0.00 | 0.00 | 0.00 | 83 | 1015.8 |
| 20260503045643 | 38 | 324 | 2.0 | 2.0 | 0.00 | 0.00 | 0.00 | 82 | 1015.8 |
| 20260503045140 | 38 | 292 | 2.0 | 3.0 | 0.00 | 0.00 | 0.00 | 82 | 1015.6 |
| 20260503044637 | 38 | 288 | 1.0 | 1.0 | 0.00 | 0.00 | 0.00 | 83 | 1015.6 |
| 20260503044135 | 38 | 286 | 0.0 | 0.0 | 0.00 | 0.00 | 0.00 | 83 | 1015.9 |
| 20260503043631 | 39 | 278 | 0.0 | 0.0 | 0.00 | 0.00 | 0.00 | 83 | 1015.5 |
| 20260503043128 | 39 | 292 | 1.0 | 1.0 | 0.00 | 0.00 | 0.00 | 83 | 1015.9 |
| 20260503042625 | 39 | 296 | 2.0 | 2.0 | 0.00 | 0.00 | 0.00 | 83 | 1015.5 |
| 20260503042120 | 39 | 295 | 2.0 | 2.0 | 0.00 | 0.00 | 0.00 | 82 | 1015.5 |
| 20260503041617 | 39 | 292 | 0.0 | 1.0 | 0.00 | 0.00 | 0.00 | 82 | 1015.5 |
| 20260503041115 | 39 | 307 | 0.0 | 0.0 | 0.00 | 0.00 | 0.00 | 82 | 1015.8 |
| 20260503040612 | 39 | 299 | 1.0 | 1.0 | 0.00 | 0.00 | 0.00 | 81 | 1015.6 |
| 20260503040109 | 39 | 280 | 0.0 | 0.0 | 0.00 | 0.00 | 0.00 | 81 | 1015.8 |
| 20260503035606 | 40 | 284 | 1.0 | 1.0 | 0.00 | 0.00 | 0.00 | 81 | 1015.8 |
| 20260503035104 | 40 | 284 | 0.0 | 1.0 | 0.00 | 0.00 | 0.00 | 80 | 1015.6 |
| 20260503034601 | 40 | 305 | 1.0 | 1.0 | 0.00 | 0.00 | 0.00 | 79 | 1015.6 |
| 20260503034058 | 41 | 276 | 0.0 | 0.0 | 0.00 | 0.00 | 0.00 | 77 | 1015.8 |
| 20260503033555 | 41 | 291 | 0.0 | 1.0 | 0.00 | 0.00 | 0.00 | 76 | 1015.6 |
| 20260503033053 | 41 | 289 | 1.0 | 1.0 | 0.00 | 0.00 | 0.00 | 77 | 1015.8 |
| 20260503032551 | 41 | 305 | 2.0 | 2.0 | 0.00 | 0.00 | 0.00 | 76 | 1015.6 |
| 20260503032049 | 41 | 301 | 2.0 | 2.0 | 0.00 | 0.00 | 0.00 | 76 | 1015.3 |
| 20260503031546 | 41 | 307 | 1.0 | 2.0 | 0.00 | 0.00 | 0.00 | 77 | 1015.6 |
| 20260503031043 | 41 | 284 | 0.0 | 1.0 | 0.00 | 0.00 | 0.00 | 77 | 1015.5 |
| 20260503030539 | 42 | 288 | 0.0 | 1.0 | 0.00 | 0.00 | 0.00 | 76 | 1015.5 |
| 20260503030037 | 42 | 289 | 1.0 | 1.0 | 0.00 | 0.00 | 0.00 | 74 | 1015.3 |
| 20260503025533 | 42 | 278 | 0.0 | 0.0 | 0.00 | 0.00 | 0.00 | 72 | 1015.2 |
| 20260503025031 | 43 | 284 | 0.0 | 0.0 | 0.00 | 0.00 | 0.00 | 72 | 1015.3 |
| 20260503024527 | 44 | 278 | 0.0 | 0.0 | 0.00 | 0.00 | 0.00 | 70 | 1015.5 |
| 20260503024024 | 44 | 311 | 1.0 | 1.0 | 0.00 | 0.00 | 0.00 | 66 | 1015.5 |
| 20260503023521 | 44 | 290 | 1.0 | 1.0 | 0.00 | 0.00 | 0.00 | 67 | 1015.2 |
| 20260503023019 | 44 | 315 | 1.0 | 1.0 | 0.00 | 0.00 | 0.00 | 67 | 1015.2 |
| 20260503022514 | 44 | 299 | 1.0 | 1.0 | 0.00 | 0.00 | 0.00 | 69 | 1015.2 |
| 20260503022009 | 44 | 282 | 0.0 | 0.0 | 0.00 | 0.00 | 0.00 | 68 | 1015.2 |
| 20260503021506 | 45 | 283 | 1.0 | 1.0 | 0.00 | 0.00 | 0.00 | 63 | 1015.4 |
| 20260503021003 | 45 | 307 | 1.0 | 1.0 | 0.00 | 0.00 | 0.00 | 62 | 1015.1 |
| 20260503020500 | 45 | 302 | 1.0 | 1.0 | 0.00 | 0.00 | 0.00 | 63 | 1015.2 |
| 20260503015957 | 46 | 319 | 1.0 | 1.0 | 0.00 | 0.00 | 0.00 | 64 | 1015.2 |
| 20260503015454 | 46 | 297 | 1.0 | 1.0 | 0.00 | 0.00 | 0.00 | 61 | 1015.1 |
| 20260503014950 | 46 | 313 | 1.0 | 2.0 | 0.00 | 0.00 | 0.00 | 60 | 1015.2 |
| 20260503014447 | 46 | 274 | 0.0 | 0.0 | 0.00 | 0.00 | 0.00 | 59 | 1015.3 |
| 20260503013945 | 47 | 274 | 0.0 | 0.0 | 0.00 | 0.00 | 0.00 | 60 | 1014.9 |
| 20260503013442 | 48 | 286 | 0.0 | 1.0 | 0.00 | 0.00 | 0.00 | 58 | 1015.1 |
| 20260503012939 | 48 | 292 | 0.0 | 1.0 | 0.00 | 0.00 | 0.00 | 53 | 1015.0 |
| 20260503012437 | 49 | 285 | 0.0 | 0.0 | 0.00 | 0.00 | 0.00 | 50 | 1015.1 |
| 20260503011933 | 49 | 288 | 0.0 | 1.0 | 0.00 | 0.00 | 0.00 | 50 | 1014.8 |
| 20260503011430 | 50 | 325 | 1.0 | 1.0 | 0.00 | 0.00 | 0.00 | 50 | 1014.9 |
| 20260503010927 | 50 | 321 | 1.0 | 1.0 | 0.00 | 0.00 | 0.00 | 48 | 1014.8 |
| 20260503010424 | 50 | 335 | 1.0 | 1.0 | 0.00 | 0.00 | 0.00 | 48 | 1014.7 |
| 20260503005921 | 50 | 294 | 1.0 | 2.0 | 0.00 | 0.00 | 0.00 | 49 | 1014.9 |
| 20260503005418 | 50 | 298 | 0.0 | 1.0 | 0.00 | 0.00 | 0.00 | 51 | 1014.8 |
| 20260503004914 | 50 | 297 | 1.0 | 1.0 | 0.00 | 0.00 | 0.00 | 52 | 1014.7 |
| 20260503004412 | 50 | 270 | 1.0 | 1.0 | 0.00 | 0.00 | 0.00 | 51 | 1014.5 |
| 20260503003909 | 51 | 277 | 0.0 | 0.0 | 0.00 | 0.00 | 0.00 | 53 | 1014.4 |
| 20260503003405 | 51 | 304 | 1.0 | 1.0 | 0.00 | 0.00 | 0.00 | 49 | 1014.5 |
| 20260503002903 | 51 | 276 | 0.0 | 1.0 | 0.00 | 0.00 | 0.00 | 49 | 1014.5 |
| 20260503002400 | 52 | 279 | 1.0 | 1.0 | 0.00 | 0.00 | 0.00 | 49 | 1014.4 |
| 20260503001856 | 52 | 270 | 2.0 | 2.0 | 0.00 | 0.00 | 0.00 | 49 | 1014.3 |
| 20260503001353 | 52 | 274 | 1.0 | 1.0 | 0.00 | 0.00 | 0.00 | 48 | 1014.1 |
| 20260503000851 | 53 | 284 | 2.0 | 2.0 | 0.00 | 0.00 | 0.00 | 46 | 1013.9 |
| 20260503000348 | 53 | 292 | 0.0 | 1.0 | 0.00 | 0.00 | 0.00 | 47 | 1014.2 |
| 20260502235844 | 53 | 272 | 1.0 | 1.0 | 0.00 | 0.00 | 0.00 | 45 | 1014.0 |
| 20260502235342 | 54 | 281 | 0.0 | 0.0 | 0.00 | 0.00 | 0.00 | 44 | 1014.1 |
| 20260502234838 | 54 | 278 | 0.0 | 1.0 | 0.00 | 0.00 | 0.00 | 43 | 1013.9 |
| 20260502234335 | 54 | 292 | 2.0 | 2.0 | 0.00 | 0.00 | 0.00 | 42 | 1014.0 |
| 20260502233832 | 55 | 296 | 4.0 | 5.0 | 0.00 | 0.00 | 0.00 | 41 | 1013.8 |
| 20260502233328 | 55 | 273 | 2.0 | 2.0 | 0.00 | 0.00 | 0.00 | 40 | 1013.6 |
| 20260502232825 | 55 | 349 | 5.0 | 7.0 | 0.00 | 0.00 | 0.00 | 41 | 1013.8 |
| 20260502232322 | 56 | 265 | 1.0 | 2.0 | 0.00 | 0.00 | 0.00 | 40 | 1013.5 |
| 20260502231818 | 57 | 306 | 3.0 | 5.0 | 0.00 | 0.00 | 0.00 | 39 | 1013.3 |
| 20260502231316 | 57 | 296 | 0.0 | 1.0 | 0.00 | 0.00 | 0.00 | 39 | 1013.3 |
| 20260502230814 | 57 | 305 | 7.0 | 8.0 | 0.00 | 0.00 | 0.00 | 39 | 1013.5 |
| 20260502230312 | 58 | 266 | 2.0 | 3.0 | 0.00 | 0.00 | 0.00 | 39 | 1013.3 |
| 20260502225808 | 57 | 309 | 2.0 | 2.0 | 0.00 | 0.00 | 0.00 | 38 | 1013.1 |
| 20260502225305 | 57 | 294 | 5.0 | 7.0 | 0.00 | 0.00 | 0.00 | 38 | 1013.2 |
| 20260502224802 | 57 | 267 | 4.0 | 6.0 | 0.00 | 0.00 | 0.00 | 39 | 1013.1 |
| 20260502224258 | 57 | 315 | 5.0 | 6.0 | 0.00 | 0.00 | 0.00 | 39 | 1013.3 |
| 20260502223756 | 57 | 271 | 5.0 | 7.0 | 0.00 | 0.00 | 0.00 | 38 | 1013.0 |
| 20260502223254 | 59 | 275 | 5.0 | 8.0 | 0.00 | 0.00 | 0.00 | 37 | 1012.8 |
| 20260502222751 | 59 | 276 | 3.0 | 3.0 | 0.00 | 0.00 | 0.00 | 37 | 1013.0 |
| 20260502222248 | 58 | 321 | 2.0 | 3.0 | 0.00 | 0.00 | 0.00 | 37 | 1012.8 |
| 20260502221743 | 58 | 327 | 5.0 | 6.0 | 0.00 | 0.00 | 0.00 | 38 | 1012.8 |
| 20260502221240 | 59 | 296 | 5.0 | 7.0 | 0.00 | 0.00 | 0.00 | 36 | 1012.6 |
| 20260502220737 | 59 | 266 | 0.0 | 1.0 | 0.00 | 0.00 | 0.00 | 39 | 1012.8 |
| 20260502220233 | 58 | 297 | 6.0 | 8.0 | 0.00 | 0.00 | 0.00 | 38 | 1012.5 |
| 20260502215730 | 58 | 275 | 11.0 | 18.0 | 0.00 | 0.00 | 0.00 | 37 | 1012.7 |
| 20260502215227 | 58 | 329 | 7.0 | 8.0 | 0.00 | 0.00 | 0.00 | 38 | 1012.5 |
| 20260502214724 | 58 | 290 | 6.0 | 8.0 | 0.00 | 0.00 | 0.00 | 37 | 1012.5 |
| 20260502214221 | 58 | 323 | 7.0 | 9.0 | 0.00 | 0.00 | 0.00 | 39 | 1012.4 |
| 20260502213718 | 58 | 314 | 9.0 | 13.0 | 0.00 | 0.00 | 0.00 | 37 | 1012.4 |
| 20260502213216 | 58 | 311 | 8.0 | 11.0 | 0.00 | 0.00 | 0.00 | 38 | 1012.4 |
| 20260502212714 | 58 | 295 | 4.0 | 6.0 | 0.00 | 0.00 | 0.00 | 38 | 1012.4 |
| 20260502212212 | 58 | 310 | 3.0 | 8.0 | 0.00 | 0.00 | 0.00 | 38 | 1012.1 |
| 20260502211708 | 59 | 336 | 6.0 | 9.0 | 0.00 | 0.00 | 0.00 | 38 | 1011.9 |
| 20260502211205 | 59 | 262 | 5.0 | 6.0 | 0.00 | 0.00 | 0.00 | 38 | 1011.8 |
| 20260502210702 | 59 | 3 | 2.0 | 3.0 | 0.00 | 0.00 | 0.00 | 38 | 1011.8 |
| 20260502210159 | 59 | 327 | 8.0 | 11.0 | 0.00 | 0.00 | 0.00 | 36 | 1011.7 |
| 20260502205656 | 59 | 334 | 7.0 | 11.0 | 0.00 | 0.00 | 0.00 | 35 | 1011.7 |
| 20260502205153 | 60 | 314 | 10.0 | 16.0 | 0.00 | 0.00 | 0.00 | 35 | 1011.9 |
| 20260502204649 | 60 | 268 | 3.0 | 5.0 | 0.00 | 0.00 | 0.00 | 36 | 1011.7 |
| 20260502204148 | 60 | 250 | 3.0 | 5.0 | 0.00 | 0.00 | 0.00 | 35 | 1011.6 |
| 20260502203644 | 60 | 270 | 7.0 | 9.0 | 0.00 | 0.00 | 0.00 | 35 | 1011.6 |
| 20260502203142 | 60 | 255 | 1.0 | 2.0 | 0.00 | 0.00 | 0.00 | 35 | 1011.7 |
| 20260502202637 | 60 | 311 | 4.0 | 6.0 | 0.00 | 0.00 | 0.00 | 34 | 1011.6 |
| 20260502202135 | 61 | 302 | 4.0 | 5.0 | 0.00 | 0.00 | 0.00 | 33 | 1011.6 |
| 20260502201632 | 61 | 307 | 5.0 | 6.0 | 0.00 | 0.00 | 0.00 | 32 | 1011.5 |
| 20260502201128 | 61 | 274 | 3.0 | 5.0 | 0.00 | 0.00 | 0.00 | 32 | 1011.4 |
| 20260502200624 | 62 | 303 | 7.0 | 9.0 | 0.00 | 0.00 | 0.00 | 31 | 1011.5 |
| 20260502200121 | 62 | 306 | 3.0 | 3.0 | 0.00 | 0.00 | 0.00 | 32 | 1011.6 |
| 20260502195620 | 63 | 222 | 3.0 | 5.0 | 0.00 | 0.00 | 0.00 | 33 | 1011.6 |
| 20260502195114 | 62 | 268 | 1.0 | 2.0 | 0.00 | 0.00 | 0.00 | 32 | 1011.4 |
| 20260502194612 | 61 | 56 | 1.0 | 2.0 | 0.00 | 0.00 | 0.00 | 33 | 1011.7 |
| 20260502194108 | 60 | 296 | 3.0 | 3.0 | 0.00 | 0.00 | 0.00 | 34 | 1011.7 |
| 20260502193605 | 60 | 274 | 6.0 | 10.0 | 0.00 | 0.00 | 0.00 | 33 | 1011.7 |
| 20260502193102 | 61 | 277 | 3.0 | 5.0 | 0.00 | 0.00 | 0.00 | 33 | 1011.9 |
| 20260502192558 | 62 | 291 | 3.0 | 5.0 | 0.00 | 0.00 | 0.00 | 32 | 1011.9 |
| 20260502192055 | 62 | 155 | 0.0 | 1.0 | 0.00 | 0.00 | 0.00 | 37 | 1011.7 |
| 20260502191552 | 62 | 177 | 2.0 | 3.0 | 0.00 | 0.00 | 0.00 | 35 | 1011.9 |
| 20260502191050 | 61 | 135 | 4.0 | 5.0 | 0.00 | 0.00 | 0.00 | 36 | 1012.0 |
| 20260502190547 | 61 | 105 | 3.0 | 3.0 | 0.00 | 0.00 | 0.00 | 36 | 1012.5 |
| 20260502190044 | 60 | 77 | 2.0 | 3.0 | 0.00 | 0.00 | 0.00 | 37 | 1012.3 |
| 20260502185538 | 60 | 67 | 5.0 | 6.0 | 0.00 | 0.00 | 0.00 | 37 | 1012.1 |
| 20260502185036 | 60 | 122 | 3.0 | 3.0 | 0.00 | 0.00 | 0.00 | 36 | 1012.4 |
| 20260502184532 | 60 | 131 | 3.0 | 3.0 | 0.00 | 0.00 | 0.00 | 36 | 1012.4 |
| 20260502184028 | 60 | 232 | 3.0 | 3.0 | 0.00 | 0.00 | 0.00 | 36 | 1012.6 |
| 20260502183524 | 59 | 200 | 0.0 | 1.0 | 0.00 | 0.00 | 0.00 | 38 | 1012.6 |
| 20260502183020 | 60 | 142 | 5.0 | 6.0 | 0.00 | 0.00 | 0.00 | 38 | 1012.8 |
| 20260502182515 | 61 | 232 | 5.0 | 6.0 | 0.00 | 0.00 | 0.00 | 36 | 1012.9 |
| 20260502182012 | 61 | 275 | 1.0 | 2.0 | 0.00 | 0.00 | 0.00 | 37 | 1012.8 |
| 20260502181510 | 60 | 237 | 1.0 | 2.0 | 0.00 | 0.00 | 0.00 | 37 | 1012.8 |
| 20260502181009 | 59 | 287 | 1.0 | 1.0 | 0.00 | 0.00 | 0.00 | 38 | 1013.1 |
| 20260502180505 | 58 | 245 | 6.0 | 6.0 | 0.00 | 0.00 | 0.00 | 38 | 1013.1 |